Location: Newark
(34.9500°N, 139.9667°E)
Time: 09:56:28
(UTC+00:00)

Vanguard 2 Rocket - Pass Details

Date: 11 December 2019
Orbit: 554 x 3326 km, 32.9° (Epoch: 26 January)

Event Time Altitude Azimuth Distance (km) Brightness Sun altitude
Rises 13:12:46 0° 279° (W) 4,529 10.8 -68.8°
Enters shadow 13:13:02 - 279° (W) 4,432 10.7 -68.8°
Reaches altitude 10° 13:16:38 10° 273° (W) 3,104 - -69.5°
Maximum altitude 13:23:03 38° 207° (SSW) 1,221 - -70.6°
Drops below altitude 10° 13:27:20 10° 138° (SE) 2,048 - -71.3°
Sets 13:29:24 0° 129° (SE) 2,826 - -71.7°
